Change the Weather History Date:

Saturday, November 30, 2013

  Actual Average Record
Temperature  
Mean Temperature 42 °F -  
Max Temperature 59 °F 63 °F 78 °F (2006)
Min Temperature 26 °F 36 °F 26 °F (2013)
Degree Days  
Heating Degree Days 22    
Moisture  
Dew Point 31 °F    
Average Humidity 83    
Maximum Humidity 100    
Minimum Humidity 48    
Precipitation  
Precipitation 0.00 in - - ()
Sea Level Pressure  
Sea Level Pressure 30.44 in    
Wind  
Wind Speed 2 mph (North)    
Max Wind Speed 10 mph    
Max Gust Speed -    
Visibility 7 miles    
Events      
Averages and records for this station are not official NWS values.
T = Trace of Precipitation, MM = Missing Value Source: NWS Daily Summary

Daily Weather History Graph

Daily Weather History Graph

Search for Another Location

Airport or City:

Trip Planner

Search our weather history database for the weather conditions in past years. The results will help you decide how hot, cold, wet, or windy it might be!

Date:

Astronomy

Nov. 30, 2013 Rise Set
Actual Time 7:22 AM EST 5:34 PM EST
Civil Twilight 6:55 AM EST 6:01 PM EST
Nautical Twilight 6:25 AM EST 6:31 PM EST
Astronomical Twilight 5:56 AM EST 7:01 PM EST
Moon 4:40 AM EST 3:52 PM EST
Length of Visible Light 11h 05m
Length of Day
10h 11m
Waning Crescent, 7% of the Moon is Illuminated
Nov 30
Waning Crescent
Dec 2
New
Dec 9
First Quarter
Dec 17
Full
Dec 25
Last Quarter

Hourly Weather History & Observations

Time (EST) Temp. Windchill Dew Point Humidity Pressure Visibility Wind Dir Wind Speed Gust Speed Precip Events Conditions
12:13 AM 28.4 °F - 28.4 °F 100% 30.47 in 2.0 mi Calm Calm - N/A   Clear
12:18 AM 26.6 °F - 26.6 °F 100% 30.46 in 1.0 mi NNW 2.3 mph - N/A   Clear
12:23 AM 26.6 °F - 26.6 °F 100% 30.46 in 1.2 mi Calm Calm - N/A   Clear
12:28 AM 26.6 °F - 26.6 °F 100% 30.46 in 2.5 mi Calm Calm - N/A   Clear
12:33 AM 26.6 °F - 26.6 °F 100% 30.46 in 4.0 mi North 1.2 mph - N/A   Clear
12:38 AM 26.6 °F - 26.6 °F 100% 30.46 in 2.5 mi Calm Calm - N/A   Clear
12:43 AM 26.6 °F - 26.6 °F 100% 30.46 in 1.2 mi Calm Calm - N/A   Clear
12:53 AM 26.6 °F - 26.6 °F 100% 30.45 in 2.0 mi Calm Calm - N/A   Clear
12:58 AM 26.8 °F - 26.6 °F 99% 30.48 in 4.0 mi Calm Calm - N/A   Clear
1:03 AM 28.4 °F - 26.6 °F 93% 30.45 in 2.0 mi Calm Calm - N/A   Clear
1:08 AM 28.4 °F - 28.4 °F 100% 30.45 in 1.2 mi Calm Calm - N/A   Clear
1:13 AM 28.4 °F - 28.4 °F 100% 30.45 in 1.0 mi Calm Calm - N/A   Clear
1:18 AM 28.4 °F - 28.4 °F 100% 30.46 in 1.8 mi Calm Calm - N/A   Clear
1:23 AM 28.4 °F - 28.4 °F 100% 30.46 in 7.0 mi WNW 2.3 mph - N/A   Clear
1:28 AM 28.4 °F 24.6 °F 28.4 °F 100% 30.46 in 4.0 mi WNW 3.5 mph - N/A   Clear
1:38 AM 28.4 °F 24.6 °F 28.4 °F 100% 30.46 in 5.0 mi WNW 3.5 mph - N/A   Clear
1:58 AM 27.1 °F 23.2 °F 27.0 °F 99% 30.48 in 7.0 mi WNW 3.5 mph - N/A   Clear
2:03 AM 26.6 °F 22.6 °F 26.6 °F 100% 30.46 in 10.0 mi WNW 3.5 mph - N/A   Clear
2:58 AM 27.1 °F - 27.0 °F 99% 30.48 in 10.0 mi WNW 1.2 mph - N/A   Clear
3:03 AM 28.4 °F - 26.6 °F 93% 30.47 in 5.0 mi Calm Calm - N/A   Clear
3:08 AM 26.6 °F - 26.6 °F 100% 30.47 in 2.5 mi Calm Calm - N/A   Clear
3:13 AM 26.6 °F - 26.6 °F 100% 30.47 in 1.0 mi Calm Calm - N/A   Clear
3:23 AM 26.6 °F - 26.6 °F 100% 30.47 in 1.8 mi Calm Calm - N/A   Clear
3:28 AM 26.6 °F - 26.6 °F 100% 30.47 in 0.8 mi Calm Calm - N/A   Clear
3:33 AM 26.6 °F - 26.6 °F 100% 30.47 in 1.0 mi Calm Calm - N/A   Clear
3:38 AM 26.6 °F - 26.6 °F 100% 30.46 in 3.0 mi Calm Calm - N/A   Clear
3:43 AM 26.6 °F - 26.6 °F 100% 30.46 in 10.0 mi Calm Calm - N/A   Clear
3:48 AM 26.6 °F - 26.6 °F 100% 30.47 in 2.0 mi Calm Calm - N/A   Clear
3:53 AM 26.6 °F - 26.6 °F 100% 30.46 in 1.2 mi Calm Calm - N/A   Clear
3:58 AM 26.6 °F - 26.6 °F 100% 30.48 in 1.2 mi West 1.2 mph - N/A   Clear
4:03 AM 26.6 °F - 26.6 °F 100% 30.46 in 1.8 mi West 2.3 mph - N/A   Clear
4:08 AM 26.6 °F 22.6 °F 26.6 °F 100% 30.47 in 3.0 mi WNW 3.5 mph - N/A   Clear
4:13 AM 26.6 °F 21.2 °F 24.8 °F 93% 30.47 in 9.0 mi WNW 4.6 mph - N/A   Clear
4:18 AM 26.6 °F 22.6 °F 24.8 °F 93% 30.47 in 10.0 mi WNW 3.5 mph - N/A   Clear
4:58 AM 27.1 °F 21.8 °F 27.0 °F 99% 30.48 in 10.0 mi WNW 4.6 mph - N/A   Clear
5:58 AM 28.6 °F - 28.2 °F 99% 30.49 in 10.0 mi WNW 2.3 mph - N/A   Clear
6:58 AM 28.6 °F 23.5 °F 28.4 °F 99% 30.50 in 10.0 mi NNW 4.6 mph - N/A   Clear
7:58 AM 30.6 °F 25.8 °F 30.0 °F 98% 30.51 in 10.0 mi NW 4.6 mph - N/A   Clear
8:58 AM 39.0 °F - 31.8 °F 75% 30.51 in 10.0 mi North 2.3 mph - N/A   Clear
9:58 AM 46.2 °F 41.2 °F 30.7 °F 55% 30.53 in 10.0 mi ENE 10.4 mph - N/A   Clear
10:58 AM 50.7 °F - 33.6 °F 52% 30.52 in 10.0 mi NNE 10.4 mph - N/A   Scattered Clouds
11:08 AM 50.0 °F - 32.0 °F 50% 30.49 in 10.0 mi NNE 8.1 mph - N/A   Mostly Cloudy
11:58 AM 53.1 °F - 35.2 °F 51% 30.48 in 10.0 mi ENE 9.2 mph - N/A   Overcast
12:58 PM 54.9 °F - 37.0 °F 51% 30.45 in 10.0 mi Variable 3.5 mph - N/A   Overcast
1:58 PM 55.2 °F - 37.2 °F 51% 30.43 in 10.0 mi Variable 5.8 mph - N/A   Overcast
2:08 PM 55.4 °F - 37.4 °F 51% 30.40 in 10.0 mi NNE 6.9 mph - N/A   Overcast
2:13 PM 55.4 °F - 37.4 °F 51% 30.40 in 10.0 mi NNE 5.8 mph - N/A   Overcast
2:23 PM 57.2 °F - 37.4 °F 48% 30.39 in 10.0 mi NE 5.8 mph - N/A   Mostly Cloudy
2:58 PM 57.9 °F - 38.7 °F 49% 30.40 in 10.0 mi NE 6.9 mph - N/A   Overcast
3:08 PM 57.2 °F - 39.2 °F 51% 30.37 in 10.0 mi East 4.6 mph - N/A   Overcast
3:13 PM 57.2 °F - 39.2 °F 51% 30.37 in 10.0 mi NE 5.8 mph - N/A   Overcast
3:58 PM 59.7 °F - 40.3 °F 49% 30.35 in 10.0 mi ENE 5.8 mph - N/A   Clear
4:58 PM 58.5 °F - 40.5 °F 51% 30.35 in 10.0 mi East 4.6 mph - N/A   Clear
5:53 PM 50.0 °F - 41.0 °F 71% 30.33 in 10.0 mi ENE 2.3 mph - N/A   Mostly Cloudy
5:58 PM 50.4 °F - 40.1 °F 68% 30.35 in 10.0 mi East 2.3 mph - N/A   Mostly Cloudy
6:58 PM 54.0 °F - 40.6 °F 61% 30.35 in 10.0 mi ESE 3.5 mph - N/A   Overcast
7:28 PM 53.6 °F - 39.2 °F 58% 30.34 in 10.0 mi East 3.5 mph - N/A   Mostly Cloudy
7:58 PM 49.8 °F - 39.6 °F 68% 30.35 in 10.0 mi ESE 3.5 mph - N/A   Partly Cloudy
8:58 PM 45.7 °F - 39.7 °F 80% 30.36 in 10.0 mi East 2.3 mph - N/A   Overcast
9:58 PM 47.3 °F - 37.2 °F 68% 30.35 in 10.0 mi ESE 3.5 mph - N/A   Mostly Cloudy
10:58 PM 45.9 °F - 37.6 °F 73% 30.33 in 10.0 mi Calm Calm - N/A   Overcast
11:13 PM 46.4 °F - 37.4 °F 71% 30.32 in 10.0 mi Calm Calm - N/A   Overcast
11:58 PM 46.4 °F - 40.3 °F 79% 30.33 in 10.0 mi NNE 1.2 mph - N/A   Overcast